| time (UTC) | temp F | wind direction | speed knots | gust knots | rain 1hr in | rain 24hr in | rain mn in | humidity % | barometer mb |
| 20260505191553 | 50 | 143 | 0.0 | 4.3 | 0.00 | 0.00 | 0.00 | 76 | 1020.9 |
| 20260505190051 | 50 | 150 | 0.0 | 2.6 | 0.00 | 0.00 | 0.00 | 76 | 1020.6 |
| 20260505184549 | 50 | 190 | 0.0 | 1.7 | 0.00 | 0.02 | 0.00 | 75 | 1020.5 |
| 20260505183047 | 50 | 250 | 0.0 | 6.1 | 0.00 | 0.02 | 0.00 | 73 | 1020.5 |
| 20260505181550 | 51 | 120 | 0.0 | 2.6 | 0.00 | 0.02 | 0.00 | 72 | 1020.6 |
| 20260505180043 | 51 | 150 | 0.0 | 3.5 | 0.00 | 0.02 | 0.00 | 71 | 1020.5 |
| 20260505174544 | 51 | 151 | 0.9 | 6.1 | 0.00 | 0.02 | 0.00 | 70 | 1020.4 |
| 20260505173038 | 51 | 155 | 0.9 | 5.2 | 0.00 | 0.02 | 0.00 | 69 | 1020.3 |
| 20260505171538 | 51 | 162 | 0.0 | 4.3 | 0.00 | 0.02 | 0.00 | 67 | 1020.2 |
| 20260505170034 | 52 | 156 | 0.0 | 7.0 | 0.00 | 0.02 | 0.00 | 66 | 1020.2 |
| 20260505164532 | 52 | 128 | 0.0 | 4.3 | 0.00 | 0.02 | 0.00 | 67 | 1020.0 |
| 20260505163029 | 52 | 120 | 0.0 | 6.1 | 0.00 | 0.02 | 0.00 | 67 | 1020.1 |
| 20260505161529 | 53 | 134 | 0.9 | 5.2 | 0.00 | 0.02 | 0.00 | 68 | 1020.1 |
| 20260505153023 | 54 | 200 | 1.7 | 6.1 | 0.00 | 0.02 | 0.00 | 67 | 1020.0 |
| 20260505151520 | 54 | 149 | 0.9 | 8.7 | 0.00 | 0.02 | 0.00 | 66 | 1020.0 |
| 20260505124514 | 53 | 143 | 0.0 | 0.9 | 0.00 | 0.02 | 0.02 | 75 | 1020.0 |
| 20260505123009 | 53 | 121 | 0.0 | 0.9 | 0.00 | 0.02 | 0.02 | 74 | 1019.9 |
| 20260505121509 | 53 | 131 | 0.0 | 0.9 | 0.00 | 0.02 | 0.02 | 74 | 1019.9 |
| 20260505120010 | 55 | 129 | 0.0 | 0.0 | 0.00 | 0.03 | 0.02 | 71 | 1019.8 |
| 20260505114507 | 55 | 124 | 0.0 | 2.6 | 0.00 | 0.03 | 0.02 | 70 | 1019.8 |
| 20260505113007 | 54 | 145 | 0.0 | 0.9 | 0.00 | 0.03 | 0.02 | 70 | 1019.7 |
| 20260505111511 | 54 | 145 | 0.0 | 0.9 | 0.00 | 0.03 | 0.02 | 71 | 1019.5 |
| 20260505101601 | 57 | 135 | 0.0 | 0.0 | 0.00 | 0.03 | 0.02 | 61 | 1018.9 |
| 20260505100057 | 59 | 233 | 0.0 | 0.0 | 0.00 | 0.03 | 0.02 | 50 | 1018.5 |
| 20260505094556 | 60 | 233 | 0.0 | 0.0 | 0.00 | 0.03 | 0.02 | 47 | 1018.3 |
| 20260505093102 | 61 | 120 | 0.0 | 0.0 | 0.00 | 0.03 | 0.02 | 44 | 1018.1 |
| 20260505091554 | 62 | 120 | 0.0 | 0.0 | 0.00 | 0.03 | 0.02 | 43 | 1018.0 |
| 20260505090054 | 64 | 120 | 0.0 | 0.0 | 0.00 | 0.03 | 0.02 | 42 | 1018.0 |
| 20260505084553 | 67 | 120 | 0.0 | 0.0 | 0.00 | 0.09 | 0.02 | 38 | 1017.8 |
| 20260505083053 | 72 | 174 | 0.0 | 0.0 | 0.00 | 0.09 | 0.02 | 33 | 1017.9 |
| 20260505081554 | 73 | 174 | 0.0 | 0.0 | 0.00 | 0.09 | 0.02 | 33 | 1017.8 |
| 20260505080049 | 70 | 239 | 0.0 | 0.9 | 0.00 | 0.09 | 0.02 | 29 | 1017.7 |
| 20260505074545 | 70 | 297 | 0.0 | 3.5 | 0.00 | 0.10 | 0.02 | 29 | 1017.7 |
| 20260505073048 | 69 | 295 | 0.0 | 2.6 | 0.00 | 0.10 | 0.02 | 28 | 1017.6 |
| 20260505071550 | 70 | 62 | 0.0 | 0.9 | 0.00 | 0.10 | 0.02 | 31 | 1017.6 |
| 20260505070037 | 69 | 217 | 0.0 | 3.5 | 0.00 | 0.10 | 0.02 | 33 | 1017.4 |
| 20260505064532 | 69 | 262 | 0.0 | 4.3 | 0.00 | 0.10 | 0.02 | 31 | 1017.3 |
| 20260505063028 | 69 | 281 | 0.0 | 1.7 | 0.00 | 0.10 | 0.02 | 38 | 1017.4 |
| 20260505061523 | 68 | 285 | 0.0 | 3.5 | 0.00 | 0.10 | 0.02 | 38 | 1017.7 |
| 20260505060020 | 67 | 269 | 0.0 | 1.7 | 0.00 | 0.10 | 0.02 | 44 | 1017.7 |
| 20260505054525 | 68 | 172 | 0.0 | 5.2 | 0.00 | 0.10 | 0.02 | 38 | 1017.6 |
| 20260505053024 | 67 | 85 | 0.0 | 3.5 | 0.00 | 0.10 | 0.02 | 42 | 1017.6 |
| 20260505051518 | 67 | 131 | 0.0 | 0.9 | 0.00 | 0.10 | 0.02 | 41 | 1017.8 |
| 20260505041504 | 66 | 202 | 0.0 | 2.6 | 0.00 | 0.10 | 0.02 | 40 | 1017.9 |
| 20260505040106 | 67 | 110 | 0.0 | 1.7 | 0.00 | 0.10 | 0.02 | 42 | 1018.1 |
| 20260505034557 | 67 | 106 | 0.0 | 1.7 | 0.00 | 0.10 | 0.02 | 40 | 1018.1 |
| 20260505033055 | 66 | 246 | 0.0 | 1.7 | 0.00 | 0.10 | 0.02 | 46 | 1018.2 |
| 20260505031552 | 65 | 67 | 0.0 | 2.6 | 0.00 | 0.10 | 0.02 | 46 | 1018.4 |
| 20260505030049 | 65 | 139 | 0.9 | 2.6 | 0.00 | 0.10 | 0.02 | 45 | 1018.6 |
| 20260505024547 | 62 | 150 | 0.0 | 1.7 | 0.00 | 0.10 | 0.02 | 49 | 1018.6 |
| 20260505023051 | 62 | 37 | 0.0 | 6.1 | 0.00 | 0.10 | 0.02 | 47 | 1018.4 |
| 20260505021543 | 64 | 281 | 0.0 | 6.1 | 0.00 | 0.10 | 0.02 | 45 | 1018.5 |
| 20260505020041 | 64 | 64 | 1.7 | 9.6 | 0.00 | 0.10 | 0.02 | 45 | 1018.5 |
| 20260505014538 | 63 | 278 | 0.0 | 4.3 | 0.00 | 0.10 | 0.02 | 45 | 1018.6 |
| 20260505013034 | 62 | 39 | 0.0 | 5.2 | 0.00 | 0.10 | 0.02 | 49 | 1018.4 |
| 20260505011530 | 60 | 318 | 0.0 | 3.5 | 0.00 | 0.10 | 0.02 | 49 | 1018.4 |
| 20260505010029 | 59 | 175 | 1.7 | 6.1 | 0.00 | 0.10 | 0.02 | 51 | 1018.3 |
| 20260505004528 | 59 | 32 | 0.0 | 5.2 | 0.00 | 0.10 | 0.02 | 52 | 1018.3 |
| 20260505003027 | 58 | 165 | 0.9 | 7.0 | 0.00 | 0.10 | 0.02 | 52 | 1018.3 |
| 20260505001525 | 60 | 278 | 0.0 | 7.0 | 0.00 | 0.10 | 0.02 | 51 | 1018.1 |
| 20260505000124 | 59 | 246 | 0.0 | 4.3 | 0.00 | 0.10 | 0.02 | 53 | 1018.0 |
| 20260504234519 | 59 | 77 | 0.0 | 7.0 | 0.00 | 0.10 | 0.02 | 55 | 1017.6 |
| 20260504233016 | 58 | 247 | 0.0 | 2.6 | 0.00 | 0.10 | 0.02 | 57 | 1017.5 |
| 20260504231513 | 57 | 270 | 0.0 | 3.5 | 0.00 | 0.10 | 0.02 | 59 | 1017.4 |
| 20260504230011 | 56 | 268 | 0.0 | 4.3 | 0.00 | 0.10 | 0.02 | 60 | 1017.6 |
| 20260504224509 | 56 | 84 | 0.9 | 4.3 | 0.00 | 0.10 | 0.02 | 62 | 1017.4 |
| 20260504223005 | 55 | 37 | 0.0 | 1.7 | 0.00 | 0.10 | 0.02 | 70 | 1017.0 |
| 20260504221600 | 53 | 111 | 0.0 | 0.9 | 0.00 | 0.10 | 0.02 | 72 | 1016.8 |
| 20260504220115 | 51 | 30 | 0.0 | 1.7 | 0.00 | 0.10 | 0.02 | 75 | 1016.7 |
| 20260504214556 | 51 | 96 | 0.0 | 0.9 | 0.00 | 0.10 | 0.02 | 78 | 1016.6 |
| 20260504213056 | 49 | 37 | 0.0 | 1.7 | 0.00 | 0.10 | 0.02 | 82 | 1016.5 |
| 20260504211553 | 47 | 4 | 0.0 | 0.9 | 0.00 | 0.10 | 0.02 | 85 | 1016.4 |
| 20260504210046 | 45 | 37 | 0.0 | 1.7 | 0.00 | 0.10 | 0.02 | 87 | 1015.9 |
| 20260504204544 | 44 | 157 | 0.0 | 0.0 | 0.00 | 0.10 | 0.02 | 89 | 1015.7 |
| 20260504203042 | 0 | 0.0 | 0.0 | 0.00 | 0.10 | 0.02 | 1015.5 | ||
| 20260504201538 | 0 | 0.0 | 0.0 | 0.00 | 0.10 | 0.02 | 1015.3 | ||
| 20260504200040 | 0 | 0.0 | 0.0 | 0.00 | 0.10 | 0.02 | 1015.0 | ||
| 20260504194528 | 0 | 0.0 | 0.0 | 0.00 | 0.11 | 0.02 | 1014.6 | ||
| 20260504193023 | 0 | 0.0 | 0.0 | 0.01 | 0.11 | 0.02 | 1014.5 |